THOR ABLESTAR DEB, 262

Orbit data source: Space-Track

THOR ABLESTAR DEB, 262 is space debris in LEO originally from a launch on Thu, 29 Jun 1961 UTC launched from the Air Force Eastern Test Range (AFETR). Debris objects in space refer to the collection of defunct objects orbiting the Earth. Examples of debris include non-operational satellites, rocket bodies, and fragments generated from explosions, collisions, or faulty payload assembly.

Loading next visibility...
Identifier
262, 1961-015CJ
Orbit
LEO
Country
Flag of USUS
Related business
Manufacturer
Unknown
Mission
Spacecraft
Bus & Motor
Unknown
Mass
Unknown
Launch date (UTC)
1961-06-29 (64 years ago)
Launch vehicle
Unknown
Launch site
Air Force Eastern Test Range (AFETR)
Object type
Payload
Rocket body
Debris
Shape & HBR
Unknown shape, 0.2 m
Radar Cross Section
Small (<0.1 m²)

Expand to show TLE details & history
Last TLE update: 19 hours ago

TLE from 19 hours ago
0 THOR ABLESTAR DEB
1 00262U 61015CJ  25293.76471934  .00010170  00000-0  21637-2 0  9995
2 00262  66.4655   8.1070 0070240 257.8946 101.4289 14.57795446323582
Epoch: 2025-10-20T18:21Z
TLE epoch observation values (Epoch: 2025-10-20T18:21:11.750Z)
Latitude
Longitude
63.3457°
Altitude
712.605 km
Speed
7.494 km/s
True Right ascension
00h 32m 25s
True Declination
0° 00' 00"
Sunlit
Object was in full shadow at epoch
Visualization orbit readout
Latitude
Unknown
Longitude
Unknown
Altitude
Unknown
Speed
Unknown
Apparent Right ascension
Unknown
Apparent Declination
Unknown
Sunlit
N/A
Visualization observer readout
Local Sidereal Time
08:28:00
Azimuth
Unknown
Elevation
Unknown
Doppler factor
Unknown
Orbital elements
Apogee altitude
748.39 km
Perigee altitude
648.975 km
Semi-major axis
7,076.82 km
Eccentricity
0.00702
Inclination
66.4655°
RAAN
8.107°
Arg. of periapsis
257.8946°
True anomaly
102.21644°
Mean anomaly
101.4289°
Eccentric anomaly
101.82281°
Mean motion
3.64574 °/min
Orbital period
98.75 mins
BSTAR
0.0021637

Documentation

Showing up to 5 results
|